Tracking 19242 objects as of 16-Aug-2018
HD Live streaming from Space Station
objects crossing your sky now

SL-12 R/B(AUX MOTOR) DEB

Track SL-12 R/B(AUX MOTOR) DEB now!
10-day predictions


NORAD ID: 41806
Int'l Code: 2006-062L
Perigee: 510.9 km
Apogee: 19,583.2 km
Inclination: 64.2 °
Period: 348.9 minutes
Semi major axis: 16418 km
RCS: Unknown
Launch date: December 25, 2006
Source: Commonwealth of Independent States (former USSR) (CIS)
Launch site: TYURATAM MISSILE AND SPACE COMPLEX (TTMTR)

Note: This is SATELLITE DEBRIS
aabbcc
Your satellite tracking list
Your tracking list is empty




NASA's NSSDC Master Catalog

Two Line Element Set (TLE):
1 41806U 06062L   18226.49754920 -.00000118  00000-0 -10186-3 0  9993
2 41806  64.2270 353.4272 5808343  12.8733 357.1330  4.12687008 30688
Source of the keplerian elements: AFSPC